COSMOS 2146

Satellite information

Favourite Embed

Satellite Type and Status

PAYLOADIN ORBIT

Key statistics

Satellite COSMOS 2146 at a glance.

Uptime

12584

Days in orbit

Revolutions

≈ 12.6

Per day

Orbit

LEO

Low Earth Orbit

Inclination

82.6

Latest

Satellite identification and parameters

Extended collection of information and parameters for COSMOS 2146.

Object identification

Identified? True

Debris? False

Object name: COSMOS 2146

International designator: 1991-033D

Object number (NORAD): 21302

Object ID (CCSDS): 21302

Country: COMMONWEALTH OF INDEPENDENT STATES (CIS)

Current information (Y/N): Y

RCS size: LARGE

Orbital parameters

Period: 113.875 minutes

Inclination: 82.5727 deg

SMA: 7782.371 km

Apoapsis: 1416.678 km

Periapsis: 1391.793 km

RAAN: 83.2661 deg

Eccentricy: 0.00159879

Argument of periapsis: 194.6324 deg

Mean anomaly: 165.4307 deg

Mean motion: 12.64546793 rev/day

Mean motion (dot): 0.00000039 rev/day2

B* drag term: 0.00015590589 1/REarth

Two-line elements (TLE)

Creation date: Oct. 28, 2025, 2:18 a.m.

Reference frame: TEME

Reference center: EARTH

Epoch: Oct. 27, 2025, 9:56 p.m. UTC

TLE line 0: 0 COSMOS 2146

TLE line 1: 1 21302U 91033D 25300.91406213 .00000039 00000-0 15591-3 0 9996

TLE line 2: 2 21302 82.5727 83.2661 0015988 194.6324 165.4307 12.64546793589967

Live tracking on map

Real-time ground track for satellite COSMOS 2146.

In-orbit conjunctions

A list of the most updated potential collisions computed for object COSMOS 2146.

Target Orbit TCA Probability of collision Miss distance Type
THORAD DELTA 1 DEB SSO 2024-07-10 12:56:35 0.0002232145 238.0 (m) DEBRIS

Associated space launch

Second generation store-dump military communications satellite

COSMOS 2146 was lifted into orbit during the mission ‘Tsiklon-3 | Strela-3 61 to 66’, on board a Tsiklon-3 space rocket.

The launch took place on May 16, 1991, 9:40 p.m. from 32/2.

For more information about the launch, click the button.

Launch to space Tsiklon-3 | Strela-3 61 to 66
Tsiklon-3 | Strela-3 61 to 66

Agency: N/A

Status: Launch Successful

Launch date: May 16, 1991, 9:40 p.m. UTC

Rocket: Tsiklon-3

Launch pad: 32/2

Location: Plesetsk Cosmodrome, Russian Federation

...

Latest news about this satellite

There are no fresh news available about this satellite. Check back as we update our databases every day.


Newsletter sign-up

Weekly statistics, charts and insights to help you stay on top of the space industry.